Weather in Rennes

France     48°06′30″N   1°41′03″W
temp.,
°C
wind,
m/s
gust,
m/s
humid.,
%
clouds,
%
prec.,
mm/h
press.,
hPa
HPBL,
m
17 april, sat
sat1723:00+3nne410875 0.1 1028200
02:00+1nne35915 0.1 102882
05:000nne34945 0.0 102857
08:00+1n36925 0.0 1028120
11:00+8ne46654 0.0 1027746
14:00+12ne455485 0.0 10261642
17:00+10n566785 0.0 1025824
20:00+9n586885 0.1 1025434
18 april, sun
sun1823:00+3nne368815 0.0 1027106
02:00+1nne34905 0.0 102751
05:000nne32915 0.0 102631
08:000nne238596 0.0 102662
11:00+8ne3458100 0.0 1026588
14:00+12ne344786 0.0 10251234
17:00+13nne2351100 0.0 10231526
20:00+9nne577517 0.0 1023304
19 april, mon
mon1923:00+4n369318 0.0 1024108
02:00+2ne22795 0.0 102420
05:00+1ne22685 0.0 102210
08:00+1ne22705 0.0 102216
11:00+9e22646 0.0 1021435
14:00+14sse33548 0.0 10201553
17:00+15sse2249100 0.1 10181938
20:00+11ese3573100 0.1 1018115
20 april, tue
tue2023:00+9ese1175100 0.0 101812
02:00+9ene2275100 0.0 101823
05:00+9ene2265100 0.0 101732
08:00+9ene2367100 0.0 101747
11:00+11e2470100 0.0 1018192
14:00+13e235799 0.0 10181180
17:00+14ne335542 0.1 10171411
20:00+11nne4776100 0.3 1018233
21 april, wed
wed2123:00+9nne3781100 0.0 1019146
02:00+8ne3770100 0.0 1020162
05:00+5nne3485100 0.0 102062
08:00+5nne3781100 0.0 1021142
11:00+12ne456253 0.0 1022536
14:00+15ne445262 0.1 10211938
17:00+14ene3564100 0.0 1021369
20:00+12ne48805 0.3 1022324